Location: Lango�lan
(48.1202°N, 3.2340°W)
Time: 00:23:20
(UTC+00:00)

USA 234 - Pass Details

Date: 23 October 2019
Orbit: 1102 x 1106 km, 123.0° (Epoch: 12 November)

Event Time Altitude Azimuth Distance (km) Brightness Sun altitude
Rises 04:33:52 0° 132° (SE) 3,911 6.7 -22.3°
Reaches altitude 10° 04:36:21 10° 135° (SE) 2,955 6.0 -21.9°
Maximum altitude 04:42:52 71° 219° (SW) 1,161 3.2 -20.8°
Enters shadow 04:46:43 27° 298° (WNW) 1,985 4.1 -20.1°
